Regional Weather Roundup
Issued by NWS

Home | Current Version | Previous Version | Graphics & Text | Print | Product List | Glossary On
Versions: 1 2 3 4 5 6 7 8 9 10 11 12 13 14 15 16 17 18 19 20 21 22 23 24 25 26 27 28 29 30 31 32 33 34 35 36 37 38 39 40 41 42 43 44 45 46 47 48 49 50
739
ASUS43 KLSX 242159
RWRMO

WEATHER SUMMARY FOR MISSOURI
NATIONAL WEATHER SERVICE SPRINGFIELD MO
500 PM CDT SAT JUN 24 2017

NOTE: "FAIR" INDICATES FEW OR NO CLOUDS BELOW 12,000 FEET WITH NO
       SIGNIFICANT WEATHER AND/OR OBSTRUCTIONS TO VISIBILITY.
       CURRENT SKY AND/OR WEATHER CONDITIONS ARE NOT AVAILABLE FOR
       CHILLICOTHE AND FARMINGTON.

MOZ001>031-035>038-043-044-053-054-242300-
...NORTHERN AND WESTERN MISSOURI...

CITY           SKY/WX    TMP DP  RH WIND       PRES   REMARKS
KANSAS CTY INT MOSUNNY   78  47  33 NW7       30.18F
KANSAS C DTWN  CLOUDY    79  44  28 W12       30.17F
LEE`S SUMMIT   SUNNY     75  44  33 NW8       30.19S
ST JOSEPH      SUNNY     80  44  27 NW14      30.16F
CHILLICOTHE      N/A     78  41  26 NW10      30.17S
KIRKSVILLE     SUNNY     76  45  33 W9G21     30.15F

$$
MOZ066>068-077>081-088>096-101>105-242300-
...SOUTHWEST MISSOURI...

CITY           SKY/WX    TMP DP  RH WIND       PRES   REMARKS
SPRINGFIELD    SUNNY     78  51  38 NW12      30.17F
JOPLIN         MOSUNNY   81  53  37 N6        30.18F
BRANSON        PTSUNNY   77  50  38 NW10      30.18F

$$
MOZ032>034-039>042-045>050-055>058-069>072-242300-
...CENTRAL MISSOURI...

CITY           SKY/WX    TMP DP  RH WIND       PRES   REMARKS
COLUMBIA       SUNNY     78  47  33 NW14      30.14F
JEFFERSON CITY SUNNY     78  42  27 N12       30.14S
ROLLA          SUNNY     76  46  34 NW13      30.14F
SEDALIA        SUNNY     78  48  34 N9        30.17F
WARRENSBURG    SUNNY     77  43  29 NW13      30.17S
OSAGE BEACH    SUNNY     78  45  30 VRB5      30.16F

$$
MOZ051-052-059>065-242300-
...EAST CENTRAL MISSOURI...

CITY           SKY/WX    TMP DP  RH WIND       PRES   REMARKS
ST LOUIS INTL  MOSUNNY   81  46  29 NW16G25   30.11F
SPIRIT OF STL  MOSUNNY   78  47  33 NW15G23   30.10F
ST CHARLES     SUNNY     78  45  30 NW14      30.10F

$$
MOZ072>076-082>087-097>100-106>115-242300-
...SOUTH CENTRAL AND SOUTHEAST MISSOURI...

CITY           SKY/WX    TMP DP  RH WIND       PRES   REMARKS
CAPE GIRARDEAU CLOUDY    78  52  40 N10       30.10F
FARMINGTON     CLOUDY    78  50  37 NW10      30.13S
POPLAR BLUFF   PTSUNNY   79  56  45 N12       30.11S
WEST PLAINS    CLOUDY    79  51  37 NW8       30.16F

$$




USA.gov is the U.S. government's official web portal to all federal, state and local government web resources and services.